Location: Barczewo
(53.8287°N, 20.6923°E)
Time: 22:50:39
(UTC+02:00)

ISS - Visible Passes

Search period start: 22 September 2018 00:00
Search period end: 02 October 2018 00:00
Orbit: 403 x 408 km, 51.6° (Epoch: 23 September)

Date Brightness Start Highest point End Pass type
(mag) Time Alt. Az. Time Alt. Az. Time Alt. Az.
23 Sep -1.6 19:38:18 10° SSE 19:39:32 12° SE 19:39:38 12° SE visible
23 Sep -0.9 21:12:17 10° SW 21:12:21 10° SW 21:12:21 10° SW visible
24 Sep -2.4 20:20:45 10° SW 20:22:54 25° S 20:22:54 25° S visible
25 Sep -2.2 19:29:24 10° SSW 19:31:53 20° SSE 19:33:18 15° ESE visible
25 Sep -1.7 21:04:42 10° WSW 21:05:59 21° SW 21:05:59 21° SW visible
26 Sep -3.3 20:12:58 10° SW 20:16:05 40° SSE 20:16:15 39° SSE visible
27 Sep -2.8 19:21:19 10° SW 19:24:17 30° SSE 19:26:26 15° E visible
27 Sep -2.2 20:57:14 10° WSW 20:59:07 30° WSW 20:59:07 30° WSW visible
28 Sep -3.6 20:05:22 10° WSW 20:08:36 52° S 20:09:12 44° SE visible
28 Sep -0.6 21:41:40 10° W 21:41:52 11° W 21:41:52 11° W visible
29 Sep -3.2 19:13:33 10° WSW 19:16:43 44° SSE 19:19:14 15° E visible
29 Sep -2.5 20:49:45 10° W 20:51:54 35° WSW 20:51:54 35° WSW visible
30 Sep -3.7 19:57:50 10° WSW 20:01:06 59° S 20:01:54 43° ESE visible
30 Sep -0.7 21:34:15 10° W 21:34:34 12° W 21:34:34 12° W visible
01 Oct -3.5 19:05:55 10° WSW 19:09:10 55° S 19:11:53 14° E visible
01 Oct -2.5 20:42:16 10° W 20:44:32 36° WSW 20:44:32 36° WSW visible
